Location: Great Falls
(47.5000°N, 111.3000°W)
Time: 03:46:59
(UTC-07:00)

ISS - Pass Details

Date: 27 October 2019
Orbit: 412 x 421 km, 51.6° (Epoch: 12 November)

Event Time Altitude Azimuth Distance (km) Brightness Sun altitude
Exits shadow 07:14:22 - 244° (WSW) 1,717 -1.1 -8.5°
Reaches altitude 10° 07:14:53 10° 244° (WSW) 1,504 -1.4 -8.4°
Maximum altitude 07:18:16 89° 149° (SSE) 426 -3.7 -7.9°
Drops below altitude 10° 07:21:40 10° 66° (ENE) 1,506 0.0 -7.3°
Sets 07:23:46 0° 66° (ENE) 2,371 1.1 -7.0°
